Simultaneous Nadir Overpasses (SNOs) Predictions

Prediction of SNOs between NOAA-19 and NPP Satellite Orbit:

Table of predicted SNOs for the next 14.0 days since TLE Epoch: 6/1/2019
Index Date (NOAA-19) Time (NOAA-19) Lat,Lon (NOAA-19) SZA (NOAA-19 ) Date (NPP) Time (NPP) Lat,Lon (NPP) SZA (NPP ) Distance(km) Time Diff (sec)
1 06/07/2019 01:17:48 -80.05, -59.36 120.25 06/07/2019 01:19:01 -80.07, -59.36 120.26 2.78 73
2 06/07/2019 02:08:44 80.05, 108.00 59.75 06/07/2019 02:09:46 80.07, 108.00 59.73 1.52 62
3 06/07/2019 02:59:48 -80.07, -84.59 120.27 06/07/2019 03:00:31 -80.07, -84.76 120.27 3.23 43
4 06/07/2019 03:50:44 80.07, 82.76 59.73 06/07/2019 03:51:16 80.07, 82.61 59.73 2.97 32
5 06/07/2019 04:41:49 -80.06,-110.14 120.27 06/07/2019 04:42:01 -80.08,-110.15 120.27 1.43 12
6 06/07/2019 05:32:45 80.07, 57.21 59.72 06/07/2019 05:32:46 80.07, 57.21 59.72 0.23 1
7 06/07/2019 06:23:50 -80.06,-135.69 120.28 06/07/2019 06:23:31 -80.08,-135.55 120.27 3.36 19
8 06/07/2019 07:14:46 80.07, 31.66 59.72 06/07/2019 07:14:16 80.07, 31.82 59.72 3.19 30
9 06/07/2019 08:05:50 -80.08,-160.92 120.30 06/07/2019 08:05:01 -80.08,-160.94 120.27 0.44 49
10 06/07/2019 08:56:46 80.09, 6.42 59.70 06/07/2019 08:55:46 80.08, 6.42 59.72 1.05 60




NCC Satellite Simultaneous Nadir Overpasses (SNOs) Prediction Service
